Время (UTC), дата Ветер
(°,м/с) 
Видим.   Явления Облачность Т
(°С)
Тd
(°С)
f(%) Тe
(°С)
Pmin
(гПа)
dP
(гПа)
Po
(мм)
O2
(г/м3)
Тmin Tmax R s Состояние
почвы
00 01.07.11 080 (В) 10 км    ясно 
+17 +9.1 60 +18  1019.5  0.4  754  284           
03 01.07.11 080 (В) >10 км    ясно 
+19 +10.7 59 +23  1020.5  1.1  755  282           
06 01.07.11 110 (В) >10 км    ясно 
+21.5 +10.8 51 +24  1020.6  0.2  755  280  +16.7         
09 01.07.11 090 (В) >10 км    ясно 
+23.4 +11.1 46 +26  1020.3  -0.2  755  278           
12 01.07.11 120 (ЮВ) >10 км    ясно 
+25.3 +10.9 40 +28  1019.2  -1  754  276           
15 01.07.11 090 (В) >10 км    ясно 
+25.7 +13.5 47 +32  1018.1  -1.1  753  275           
18 01.07.11 100 (В) 10 км    ясно 
+23 +14.2 58 +30  1017.1  -1.1  752  277    +25.8       
21 01.07.11 тихо ()   10 км    ясно 
+19.8 +14.1 70 +27  1017.2  -0.1  752  280           
00 02.07.11 130 (ЮВ) 10 км    ясно 
+19.4 +13.1 67 +26  1016.9  -0.3  752  280           
03 02.07.11 тихо ()   >10 км    ясно 
+20.1 +14.5 70 +28  1017.2  0.3  752  279           
06 02.07.11 230 (ЮЗ) >10 км    ясно 
+25.3 +14.8 52 +34  1016.4  -0.5  752  274  +20.1         
09 02.07.11 120 (ЮВ) >10 км    ясно 
+26.8 +13.9 45 +34  1015.8  -0.4  752  273           
12 02.07.11 150 (ЮВ) >10 км    ясно 
+27.8 +15.4 47 +37  1014.9  -0.9  751  271           
15 02.07.11 150 (ЮВ) >10 км    ясно 
+27.2 +15.2 48 +36  1013.9  -1  750  272           
18 02.07.11 тихо ()   10 км    1/0 верхняя 
[Ci fib]
+23.4 +16.9 67 +36  1014  -0.1  750  275    +28.3       
21 02.07.11 тихо ()   10 км    1/0 верхняя 
[Ci fib]
+21.5 +16 71 +32  1014.1  750  277           
00 03.07.11 тихо ()   10 км    ясно 
+20.2 +16.2 78 +31  1013.6  -0.5  750  278           
03 03.07.11 тихо ()   >10 км    3/0 верхняя 
[Ci fib]
+22 +17.5 76 +35  1013.5  750  276           
06 03.07.11 140 (ЮВ) >10 км    8/0 средняя, верхняя 
[Ac As|Ci fib]
+26 +18.7 64 +42  1012.6  -0.7  749  271  +20.2         
09 03.07.11 180 (Ю) >10 км  в посл. час ливневой дождь  9/6 600 м кучево-дожд., средняя 
[Cb cap|Ac As]
+27.5 +16.4 51 +39  1012.5  -0.1  743  268           
12 03.07.11 170 (Ю) >10 км  {ливн. осадки}  9/6 600 м средняя 
[Sc|Ac cast]
+27.1 +18.5 59 +43  1011.1  -1.4  748  270           
15 03.07.11 160 (Ю) >10 км  {ливн. осадки}  9/3 600 м средняя 
[Sc|Ac cast]
+26.5 +19.1 64 +43  1009.2  -1.9  747  270           
18 03.07.11 200 (Ю) 10 км  {ливн. осадки}  8/4 600 м средняя 
[Sc|Ac cast]
+24.5 +19 71 +41  1008.9  -0.4  746  272    +29  0.0     
21 03.07.11 230 (ЮЗ) 10 км    ясно 
+21.9 +17.5 76 +35  1009.6  0.6  747  275           
00 04.07.11 250 (З) 10 км    ясно 
+19.4 +17.1 87 +34  1009.7  747  277           
03 04.07.11 240 (ЮЗ) >10 км    10/0 верхняя 
[Ci fib]
+20.1 +17 82 +33  1010.3  0.7  747  277           
06 04.07.11 320 (СЗ) >10 км    8/0 верхняя 
[Cc]
+23.3 +16.6 66 +35  1010.6  0.3  748  274  +19         
09 04.07.11 270 (З) >10 км    4/0 верхняя 
[Cc]
+26.8 +19.1 63 +44  1011.2  0.8  748  270           
12 04.07.11 280 (З) >10 км    5/3 1000 м верхняя 
[Cu med, cong|Cc]
+27.8 +16.8 51 +40  1010.9  -0.2  748  270           
15 04.07.11 290 (З) >10 км    8/0 средняя, верхняя 
[Ac lent|Cc]
+27.3 +15.8 49 +37  1011.1  0.1  748  271           
18 04.07.11 тихо ()   10 км    10/0 средняя 
[Ac As]
+24.3 +15.8 59 +34  1011.2  748  274    +28.4       
21 04.07.11 080 (В) 10 км    5/0 средняя 
[Ac trans]
+23.4 +15.4 61 +33  1011.2  -0.1  748  274           
00 05.07.11 080 (В) 10 км  {ливн. осадки}  10/0 средняя 
[Ac As]
+22.7 +16.5 68 +34  1011.2  748  275           
03 05.07.11 090 (В) 10 км    9/0 средняя 
[Ac cast]
+22.5 +15.7 65 +32  1012.4  1.2  749  276           
06 05.07.11 090 (В) >10 км  в посл. час гроза{ливн. осадки}  10/4 600 м кучево-дожд., средняя, верхняя 
[Cb cap|Ac cuf|Ci fib]
+22.7 +18.4 77 +38  1012.7  0.3  749  274  +22.1    0.0     
09 05.07.11 090 (В) >10 км    6/3 600 м средняя, верхняя 
[Cu med, cong|Ac lent|Ci fib]
+26 +19.5 67 +44  1012.8  0.3  749  271           
12 05.07.11 100 (В) >10 км    10/0 верхняя 
[Ci]
+26.5 +20.1 68 +45  1012.3  -0.5  749  270           
15 05.07.11 100 (В) >10 км    6/0 верхняя 
[Ci fib]
+25.9 +20.3 71 +45  1012.4  0.1  749  271           
18 05.07.11 090 (В) 10 км    ясно 
+23.2 +19.5 80 +41  1013.3  0.7  750  274    +27.1  0.0     
21 05.07.11 100 (В) 10 км    4/3 600 м кучево-дожд., средняя 
[Cb cap|Ac lent]
+20.7 +18.5 87 +36  1013.1  -0.3  749  276           
00 06.07.11 110 (В) 10 км    10/5 600 м кучево-дожд., средняя 
[Cb cap|Ac lent]
+20.1 +18 88 +34  1013.1  749  277           
03 06.07.11 080 (В) >10 км  в посл. час ливневой дождь  10/8 600 м кучево-дожд., средняя 
[Cb cap|Ac cast]
+19.9 +17.6 87 +35  1014.1  750  278           
06 06.07.11 100 (В) >10 км  {ливн. осадки}  6/3 1000 м средняя, верхняя 
[Sc diur, vesp|Ac As|Ci fib]
+21.7 +18.7 83 +37  1014.3  0.2  750  276  +19.7    0.0     
09 06.07.11 150 (ЮВ) >10 км    8/3 600 м средняя, верхняя 
[Cu hum|Ac lent|Ci fib]
+25.6 +19.1 67 +42  1014.1  0.1  750  272           
12 06.07.11 140 (ЮВ) >10 км    9/0 средняя, верхняя 
[Ac lent|Ci fib]
+27.2 +18.8 60 +43  1013.5  -0.6  750  270           
15 06.07.11 170 (Ю) >10 км    8/0 верхняя 
[Cc]
+27.4 +21.3 69 +49  1012.7  -0.7  749  269           
18 06.07.11 тихо ()   10 км    ясно 
+25 +21.4 80 +47  1013.5  0.6  750  271    +27.9       
21 06.07.11 тихо ()   10 км    ясно 
+21.7 +19.5 87 +39  1013.6  750  275           
00 07.07.11 тихо ()   10 км    3/0 верхняя 
[Ci fib]
+20.3 +19 92 +37  1014.1  0.4  750  277           
03 07.07.11 340 (С) >10 км    4/0 верхняя 
[Ci fib]
+23.1 +20.2 84 +42  1014.5  0.5  751  274           
06 07.07.11 040 (СВ) >10 км    10/0 верхняя 
[Ci fib]
+26.7 +17.7 58 +40  1014.4  0.1  751  272  +20.1         
09 07.07.11 240 (ЮЗ) >10 км    10/3 600 м верхняя 
[Cu Sc|Ci fib]
+28.4 +15.4 45 +38  1014.3  751  271           
12 07.07.11 300 (СЗ) >10 км    10/3 600 м верхняя 
[Cu hum|Ci fib]
+29.3 +16.7 47 +41  1014.8  0.5  751  270           
15 07.07.11 290 (З) >10 км    8/0 верхняя 
[Ci fib]
+28.4 +16.8 49 +40  1014.4  -0.4  751  270           
21 07.07.11 060 (СВ) 10 км    ясно 
+23.9 +16.4 63 +35  1014.9  -0.3  751  275           
00 08.07.11 090 (В) 10 км    8/3 600 м кучево-дожд., средняя, верхняя 
[Cb calv|Ac cast|Ci]
+23.1 +15.7 63 +33  1014.5  -0.5  751  276           
03 08.07.11 040 (СВ) >10 км    10/3 1000 м средняя 
[Sc diur, vesp|Ac cuf]
+22.9 +15.2 62 +32  1014.3  -0.2  750  276           
06 08.07.11 100 (В) >10 км  {дождь}  4/0 средняя 
[Ac lent]
+25.9 +17.3 59 +39  1013.3  -0.8  750  272  +22.4         
09 08.07.11 110 (В) 4-10{10}  >10 км    10/0 средняя, верхняя 
[Ac lent|Ci fib]
+29.1 +19.6 57 +47  1011  -2.2  748  268           
12 08.07.11 120 (ЮВ) >10 км    10/10 600 м 
[Sc]
+28.9 +22 66 +53  1010  -1  747  267           
15 08.07.11 130 (ЮВ) >10 км    4/0 средняя 
[Ac As]
+29.3 +20.1 58 +48  1008.3  -1.6  746  267           
18 08.07.11 070 (В) 10 км    4/0 средняя 
[Ac As]
+24.4 +17 63 +37  1009.3  0.7  747  272    +30.2  0.0     
21 08.07.11 040 (СВ) 10 км    ясно 
+21.9 +17.4 76 +35  1009  -0.4  746  275           
00 09.07.11 тихо ()   10 км    ясно 
+19.9 +16.2 79 +31  1009.1  746  277           
03 09.07.11 260 (З) >10 км    ясно 
+21.2 +18.7 86 +37  1009  746  275           
06 09.07.11 300 (СЗ) >10 км    ясно 
+23.5 +19 76 +40  1008.9  746  272  +19.5         
09 09.07.11 270 (З) >10 км    4/3 600 м верхняя 
[Cu med, cong|Ci fib]
+26.5 +18.9 63 +43  1008.2  -0.6  746  270           
12 09.07.11 140 (ЮВ) >10 км    10/8 600 м верхняя 
[Cu med, cong|Ci]
+27.8 +18.6 57 +44  1006.2  -1.9  745  268           
15 09.07.11 020 (С) 2{12}  >10 км  гроза, ливневой дождь  10/10 600 м кучево-дожд. 
[Cb cap]
+18.1 +16.6 91 +31  1007.4  0.8  745  278           
18 09.07.11 170 (Ю) 10 км  {гроза, ливн. осадки}  10/3 600 м средняя 
[Sc diur, vesp|Ac As]
+18.1 +16.9 93 +32  1006.7  -0.7  745  278    +28  69     
21 09.07.11 360 (С) 10 км    ясно 
+17.4 +16.6 95 +30  1005.8  -1  744  278           
00 10.07.11 тихо ()   10 км    10/0 средняя 
[Ac As]
+17.1 +15.9 93 +28  1005  -0.8  743  278           
03 10.07.11 тихо ()   >10 км    10/0 средняя, верхняя 
[Ac cast|Ci fib]
+17.7 +16.2 91 +29  1004.7  -0.3  743  278           
06 10.07.11 020 (С) >10 км    8/3 600 м средняя, верхняя 
[Cu hum|Ac cast|Ci fib]
+19.6 +16.6 83 +33  1004.5  -0.1  743  276  +17.1         
09 10.07.11 030 (СВ) >10 км    9/5 600 м кучево-дожд., средняя, верхняя 
[Cb calv|Ac cast|Ci fib]
+22.4 +17.2 72 +35  1004  -0.3  743  273           
12 10.07.11 060 (СВ) >10 км  в посл. час ливневой дождь{гроза}  8/4 600 м кучево-дожд., средняя 
[Cb calv|Ac As]
+19.9 +18 89 +36  1004.3  0.2  743  275           
15 10.07.11 030 (СВ) >10 км    10/10 300 м 
[Frnb]
+18.9 +16.4 85 +31  1005.8  1.4  744  277           
18 10.07.11 060 (СВ) 10 км  {морось}  10/10 600 м 
[Sc]
+16.7 +14.1 85 +25  1008.4  2.5  746  280    +23.4     
21 10.07.11 060 (СВ) 10 км    8/0 средняя 
[Ac cast]
+16.5 +12.9 79 +22  1008.8  0.4  746  281           
00 11.07.11 050 (СВ) 10 км    ясно 
+14.6 +12.8 89 +21  1010.6  1.7  747  283           
03 11.07.11 060 (СВ) >10 км    10/10 200 м 
[Frnb]
+15.2 +13 87 +20  1011.7  748  283           
06 11.07.11 100 (В) >10 км    4/4 600 м 
[Cu hum]
+17.8 +10.5 62 +21  1013.1  1.5  749  282    +14.2  0.0     
09 11.07.11 020 (С) >10 км    3/3 600 м 
[Cu hum]
+20 +8.8 48 +20  1013.9  0.9  750  280           
12 11.07.11 040 (СВ) >10 км    3/3 600 м 
[Cu hum]
+21.4 +7 39 +21  1015.3  1.5  751  280           
15 11.07.11 040 (СВ) >10 км    1/1 600 м 
[Cu hum]
+20.9 +5.1 36 +21  1015.7  0.3  751  280           
18 11.07.11 030 (СВ) 10 км    ясно 
+18.8 +10 57 +21  1016  0.3  752  282    +21.4       
21 11.07.11 тихо ()   10 км    ясно 
+16.4 +10.8 69 +19  1015.5  -0.7  751  283           
00 12.07.11 тихо ()   10 км    ясно 
+14.4 +10.8 79 +17  1015.6  751  285           
03 12.07.11 330 (СЗ) >10 км    ясно 
+16.6 +10.6 68 +20  1016.1  0.7  752  284           
06 12.07.11 280 (З) >10 км    ясно 
+20.7 +11.1 54 +23  1015.7  -0.2  751  279  +14.1         
09 12.07.11 300 (СЗ) >10 км    1/0 средняя 
[Ac lent]
+23.2 +7.3 36 +23  1014.6  -1  751  278           
12 12.07.11 310 (СЗ) >10 км    10/0 верхняя 
[Ci]
+24.5 +8.5 36 +25  1013.7  -0.9  750  276           
15 12.07.11 270 (З) >10 км    10/10 600 м 
[Sc]
+23.5 +11.7 47 +27  1012.7  -1  749  276           
18 12.07.11 300 (СЗ) 10 км  {дождь}  4/0 средняя 
[Ac cast]
+19.3 +15.1 77 +29  1013.4  0.5  750  279    +25.5       
21 12.07.11 320 (СЗ) 10 км    ясно 
+17.6 +15 85 +28  1013.6  0.1  750  281           
00 13.07.11 300 (СЗ) 10 км    8/4 600 м кучево-дожд., средняя 
[Cb cap|Ac lent]
+17.2 +15.1 87 +28  1014.4  0.8  750  281           
03 13.07.11 300 (СЗ) >10 км    4/0 средняя 
[Ac lent]
+19.6 +14.8 74 +29  1014.8  0.5  751  279           
06 13.07.11 240 (ЮЗ) >10 км    4/0 верхняя 
[Ci fib]
+22.3 +17.6 75 +36  1014.6  751  276  +17.1    0.0     
09 13.07.11 300 (СЗ) >10 км    3/3 600 м 
[Cu med, cong]
+25.5 +16.2 56 +36  1014.5  751  273           
12 13.07.11 300 (СЗ) >10 км    3/1 600 м верхняя 
[Cu hum|Ci fib]
+26.9 +13.4 43 +33  1013.8  -0.6  750  273           
15 13.07.11 330 (СЗ) >10 км    3/3 600 м верхняя 
[Cu hum|Ci fib]
+27.2 +12.9 41 +32  1013.7  -0.1  750  272           
18 13.07.11 250 (З) 10 км    4/0 
+23.4 +15.8 62 +33  1014.1  0.2  750  275    +27.8       
21 13.07.11 240 (ЮЗ) 10 км    10/0 средняя 
[Ac cast]
+21.9 +15.3 66 +31  1014.2  750  277           
00 14.07.11 170 (Ю) 10 км  {ливн. осадки}  8/4 600 м кучево-дожд., средняя 
[Cb cap|Ac cast]
+19.9 +16.4 80 +32  1014  -0.2  750  278           
03 14.07.11 220 (ЮЗ) >10 км  в посл. час ливневой дождь  10/6 600 м кучево-дожд., средняя 
[Cb cap|Ac cast]
+19.9 +17.8 88 +35  1014.3  0.3  750  278           
06 14.07.11 240 (ЮЗ) >10 км  {ливн. осадки}  10/0 средняя, верхняя 
[Ac lent|Ci fib]
+22.7 +18.4 77 +38  1013.8  -0.4  750  275         
09 14.07.11 310 (СЗ) >10 км    6/5 600 м верхняя 
[Cu hum|Ci fib]
+25.6 +18.6 65 +41  1013.8  0.1  750  272           
12 14.07.11 300 (СЗ) >10 км    6/6 1000 м кучево-дожд. 
[Cb cap]
+26 +15.9 54 +36  1013  -0.6  750  272           
15 14.07.11 320 (СЗ) >10 км    10/6 600 м верхняя 
[Cu med, cong|Ci fib]
+25.4 +16.7 59 +37  1013.5  0.5  750  273           
18 14.07.11 310 (СЗ) 10 км    10/0 средняя, верхняя 
[Ac cuf|Ci sp]
+23.1 +15.1 61 +32  1014  0.4  750  276    +27.1       
21 14.07.11 300 (СЗ) 10 км    10/0 верхняя 
[Ci fib]
+20.8 +14.3 66 +28  1014.5  0.4  751  278           
00 15.07.11 320 (СЗ) 10 км    ясно 
+18.6 +14.1 75 +27  1015  0.4  751  280           
03 15.07.11 320 (СЗ) >10 км    ясно 
+19.4 +12.7 65 +25  1015.9  0.9  752  280           
06 15.07.11 350 (С) >10 км    1/0 средняя 
[Ac und]
+22.1 +13.7 59 +29  1016.6  0.7  752  278  +18.1         
09 15.07.11 300 (СЗ) >10 км    3/3 1000 м 
[Cu hum]
+23.8 +11.8 47 +27  1016.7  0.2  752  277           
12 15.07.11 340 (С) >10 км    1/1 600 м 
[Cu hum]
+24.8 +10 39 +26  1016.5  -0.1  752  276           
15 15.07.11 310 (СЗ) >10 км    8/0 средняя 
[Ac und]
+23.3 +10.7 45 +25  1016.8  0.2  752  277           
18 15.07.11 010 (С) 10 км    8/0 средняя, верхняя 
[Ac lent|Ci fib]
+20.5 +9.5 49 +21  1017.6  0.6  753  280    +25       
21 15.07.11 020 (С) 10 км    ясно 
+18.1 +11.8 67 +24  1018.4  0.7  753  282           
00 16.07.11 тихо ()   10 км    3/0 средняя 
[Ac lent]
+16.2 +11.8 75 +20  1018.3  -0.2  753  284           
03 16.07.11 360 (С) >10 км    10/0 верхняя 
[Ci fib]
+17.9 +11.9 68 +23  1019.2  754  283           
06 16.07.11 020 (С) >10 км    5/0 верхняя 
[Ci fib]
+21.3 +10.1 49 +22  1019  754  280  +15.6         
09 16.07.11 250 (З) >10 км    3/0 средняя 
[Ac cast]
+23.7 +10.1 42 +25  1018.3  -0.6  753  278           
12 16.07.11 300 (СЗ) >10 км    3/0 средняя 
[Ac lent]
+25.2 +11.3 42 +28  1017.5  -0.7  753  276           
15 16.07.11 240 (ЮЗ) >10 км    5/0 средняя, верхняя 
[Ac lent|Ci fib]
+24.7 +10.3 40 +26  1015.8  -1.6  752  276           
18 16.07.11 170 (Ю) 10 км    ясно 
+20.2 +12 59 +24  1015.4  -0.4  751  280    +25.4       
21 16.07.11 160 (Ю) 10 км    ясно 
+18.8 +13.9 73 +27  1015.4  -0.3  751  280           
00 17.07.11 160 (Ю) 10 км    4/0 средняя 
[Ac lent]
+18.4 +13.5 73 +26  1015.4  751  281           
03 17.07.11 170 (Ю) >10 км    8/0 средняя 
[Ac cast]
+19.6 +14.3 71 +28  1015.6  0.2  751  280           
06 17.07.11 200 (Ю) >10 км    ясно 
+24.1 +14.9 56 +33  1014.9  -0.4  751  275  +17.9         
09 17.07.11 220 (ЮЗ) >10 км    ясно 
+27.2 +13.8 44 +34  1014.1  -0.7  750  272           
12 17.07.11 210 (ЮЗ) >10 км    ясно 
+28.6 +14.6 42 +37  1012.9  -1.1  750  270           
15 17.07.11 190 (Ю) >10 км    8/0 верхняя 
[Ci]
+27.2 +15.6 49 +37  1012  -1  749  271           
18 17.07.11 170 (Ю) 10 км    8/0 средняя, верхняя 
[Ac cast|Cc]
+23.2 +15.8 63 +33  1012  -0.2  749  275    +29.1       
21 17.07.11 170 (Ю) 10 км    10/0 верхняя 
[Ci fib]
+21.3 +15.6 70 +31  1012.1  749  277           
00 18.07.11 170 (Ю) 10 км    10/3 600 м средняя, верхняя 
[Sc|Ac cast|Ci fib]
+20.1 +15.2 73 +29  1011.8  -0.3  749  278           
03 18.07.11 тихо ()   >10 км    8/1 600 м средняя 
[Sc|Ac cast]
+20.3 +15.8 75 +30  1011.1  -0.6  748  277           
06 18.07.11 170 (Ю) >10 км    6/0 средняя, верхняя 
[Ac lent|Ci fib]
+26.7 +19.1 63 +43  1010.9  748  270  +19.8         
09 18.07.11 020 (С) >10 км    9/6 600 м кучево-дожд., средняя 
[Cb cap|Ac cast]
+27.3 +17.7 56 +41  1011.1  0.2  748  270           
12 18.07.11 030 (СВ) >10 км    3/3 1000 м 
[Cu med, cong]
+26.9 +17 55 +39  1011  -0.1  748  271           
15 18.07.11 060 (СВ) >10 км    8/3 1000 м средняя, верхняя 
[Sc diur, vesp|Ac cuf|Ci fib]
+25.4 +15.9 56 +36  1011  -0.1  748  272           
18 18.07.11 010 (С) 10 км  слаб. ливневой дождь, в посл. час гроза  10/8 300 м кучево-дожд., средняя 
[Cb cap|Ac As]
+22.5 +16.8 70 +34  1011.7  0.6  749  275    +28       
21 18.07.11 050 (СВ) 10 км  слаб. ливневой дождь, в посл. час гроза  10/10 300 м кучево-дожд. 
[Cb cap]
+19 +17.7 92 +34  1012.4  0.5  749  278           
00 19.07.11 050 (СВ) 10 км  {гроза, ливн. осадки}  9/9 300 м 
[St]
+18.8 +17.5 92 +33  1012  -0.4  749  278           
03 19.07.11 060 (СВ) >10 км    3/0 средняя 
[Ac lent]
+20.3 +17.9 86 +34  1012.7  0.8  749  277           
06 19.07.11 020 (С) >10 км    9/9 600 м 
[Sc]
+22.7 +17.4 72 +36  1013  0.4  749  275    +18.6     
09 19.07.11 080 (В) >10 км    3/3 600 м 
[Cu hum]
+24.5 +17.8 66 +38  1013.2  0.3  750  273           
12 19.07.11 060 (СВ) >10 км    4/4 600 м 
[Cu hum]
+25.8 +16.6 57 +37  1013.3  0.1  750  272           
15 19.07.11 030 (СВ) >10 км    3/3 600 м 
[Cu hum]
+25.8 +17.2 59 +39  1013  -0.2  750  272           
18 19.07.11 060 (СВ) 10 км    4/0 средняя 
[Ac lent]
+22.6 +18.1 76 +37  1014  0.8  750  275    +26.7       
21 19.07.11 070 (В) 10 км    4/0 средняя 
[Ac lent]
+21.1 +17.5 80 +34  1014.3  0.2  750  277           
00 20.07.11 080 (В) 10 км    4/4 600 м 
[Cu med, cong]
+20.5 +16.9 80 +33  1014.7  0.4  751  278           
03 20.07.11 090 (В) >10 км    ясно 
+20.6 +16.7 78 +32  1015.3  0.6  751  278           
06 20.07.11 100 (В) >10 км    1/1 600 м 
[Cu hum]
+23.7 +16.9 66 +36  1015.5    751  275  +20.1         
09 20.07.11 070 (В) >10 км    1/1 600 м 
[Cu hum]
+25.5 +13.7 48 +32  1015.7  0.3  752  274           
12 20.07.11 080 (В) >10 км    3/3 600 м 
[Cu hum]
+26.4 +13.1 44 +32  1015.5  -0.1  752  274           
15 20.07.11 090 (В) >10 км    ясно 
+26.1 +12.1 42 +30  1015.4  -0.2  751  274           
18 20.07.11 080 (В) 10 км    ясно 
+23.5 +14.8 58 +32  1015.7  0.2  752  276    +26.6       
21 20.07.11 080 (В) 10 км    ясно 
+21.3 +14.7 66 +29  1015.8  752  278           
00 21.07.11 090 (В) 10 км    ясно 
+19.6 +14.8 74 +29  1017.4  1.4  753  280           
03 21.07.11 100 (В) >10 км    ясно 
+20.1 +13.9 67 +27  1018.1  0.7  753  280           
06 21.07.11 110 (В) >10 км    ясно 
+24.9 +14.7 53 +33  1018.2  0.4  753  275  +19.2         
09 21.07.11 160 (Ю) >10 км    3/3 600 м 
[Cu hum]
+27 +13.3 43 +33  1018.4  0.3  754  274           
12 21.07.11 130 (ЮВ) >10 км    3/3 600 м 
[Cu hum]
+27.4 +14.1 44 +34  1018.4  754  273           
15 21.07.11 110 (В) >10 км    ясно 
+26.7 +13.8 45 +33  1018.2  -0.2  753  274           
18 21.07.11 110 (В) 10 км    ясно 
+22.3 +13.5 57 +28  1019.1  0.7  754  278    +27.8       
21 21.07.11 110 (В) 10 км    ясно 
+19.4 +11 58 +22  1019.6  0.3  754  282           
00 22.07.11 110 (В) 10 км    ясно 
+17.6 +9.6 59 +19  1019.9  0.2  754  284           
03 22.07.11 110 (В) >10 км    ясно 
+18.4 +10.8 61 +22  1020.9  755  283           
06 22.07.11 130 (ЮВ) >10 км    ясно 
+23.1 +12.9 53 +28  1020.5  -0.1  755  278  +17         
09 22.07.11 180 (Ю) >10 км    ясно 
+26.8 +13.2 43 +32  1020  -0.3  755  274           
12 22.07.11 170 (Ю) >10 км    1/1 1000 м 
[Cu hum]
+27.8 +13.3 41 +34  1019.3  -0.7  754  273           
15 22.07.11 170 (Ю) >10 км    3/0 верхняя 
[Ci fib]
+26.3 +11.9 41 +30  1019  -0.4  754  275           
18 22.07.11 120 (ЮВ) 10 км    3/0 верхняя 
[Ci fib]
+22.1 +12.4 54 +26  1019.2  754  279    +28       
21 22.07.11 110 (В) 10 км    ясно 
+20.6 +10.1 51 +22  1019.3  754  281           
00 23.07.11 110 (В) 10 км    ясно 
+17.8 +11.6 67 +22  1020.2  0.8  755  283           
03 23.07.11 110 (В) >10 км    ясно 
+19.9 +11.6 59 +24  1020.7  0.6  755  281           
06 23.07.11 100 (В) >10 км    ясно 
+24.3 +11.6 45 +27  1020.6  0.1  755  277  +16.6         
09 23.07.11 150 (ЮВ) >10 км    ясно 
+26.2 +11.7 40 +30  1020.3  -0.2  755  275           
12 23.07.11 150 (ЮВ) >10 км    ясно 
+27.4 +8.6 31 +27  1019.3  -0.9  754  275           
15 23.07.11 тихо ()   >10 км    ясно 
+27.2 +10.3 35 +29  1018.4  -0.9  754  274           
18 23.07.11 тихо ()   10 км    ясно 
+21.9 +14.4 62 +29  1018.5  -0.2  753  278    +27.6       
21 23.07.11 тихо ()   10 км    ясно 
+20 +14.2 69 +27  1018.6  753  280           
00 24.07.11 тихо ()   10 км    ясно 
+18.1 +14.8 81 +26  1019.6  754  282           
03 24.07.11 тихо ()   >10 км    ясно 
+22.6 +16 66 +33  1019.9  0.5  755  277           
06 24.07.11 090 (В) >10 км    ясно 
+26.6 +16.1 53 +37  1020  0.3  755  274  +18         
09 24.07.11 290 (З) >10 км    1/0 
[Cu hum]
+28.9 +14.2 41 +36  1019.8  -0.1  755  272           
12 24.07.11 190 (Ю) >10 км    1/1 1000 м 
[Cu hum]
+29.6 +14.5 40 +37  1019  -0.8  754  271           
15 24.07.11 240 (ЮЗ) >10 км    ясно 
+29.6 +14.5 40 +37  1018.2  -0.8  754  271           
18 24.07.11 140 (ЮВ) 10 км    ясно 
+25.1 +17.1 61 +37  1018.9  0.5  754  274    +30.5       
21 24.07.11 тихо ()   10 км    ясно 
+22.2 +17.2 73 +35  1019.4  0.4  754  277           
00 25.07.11 тихо ()   10 км    ясно 
+20.1 +17 82 +32  1020  0.5  755  279           
03 25.07.11 тихо ()   >10 км    ясно 
+23.5 +16.7 66 +35  1021.1  1.2  755  277           
06 25.07.11 160 (Ю) >10 км    ясно 
+28.4 +18.5 55 +43  1021.9  756  272  +19.6         
09 25.07.11 090 (В) >10 км    3/3 600 м 
[Cu hum]
+30 +15.5 41 +39  1021.7  -0.1  756  271           
12 25.07.11 170 (Ю) >10 км    1/1 600 м 
[Cu hum]
+31.2 +14.8 37 +39  1021.3  -0.4  756  270           
15 25.07.11 160 (Ю) >10 км    ясно 
+30.6 +15 39 +39  1021  -0.3  756  271           
18 25.07.11 130 (ЮВ) 10 км    ясно 
+27.2 +15.8 50 +37  1021.9  0.7  756  274    +32.2       
21 25.07.11 тихо ()   10 км    ясно 
+24.5 +16.9 63 +36  1022.3  0.3  756  276           
00 26.07.11 тихо ()   10 км    ясно 
+23.7 +16 62 +34  1023  0.6  757  277           
03 26.07.11 тихо ()   >10 км    ясно 
+25.1 +15.4 55 +34  1023.1  0.2  757  276           
06 26.07.11 090 (В) >10 км    3/3 600 м 
[Sc]
+28.1 +18.3 55 +43  1023.3  0.4  757  273  +22.3         
09 26.07.11 160 (Ю) >10 км    1/0 средняя 
[Ac cast]
+32.9 +17.5 40 +46  1021.7  -0.7  756  268           
12 26.07.11 130 (ЮВ) >10 км    1/0 средняя 
[Ac cast]
+33.4 +17.8 40 +47  1021.8  0.1  756  268           
15 26.07.11 140 (ЮВ) >10 км    1/0 средняя 
[Ac lent]
+32.8 +17.6 40 +46  1020.7  -1.1  755  268           
18 26.07.11 100 (В) 10 км    4/0 
[Cu med, cong]
+29.4 +19.7 56 +47  1021.2  0.3  756  270    +33.4       
21 26.07.11 120 (ЮВ) 10 км  {гроза}  6/4 600 м кучево-дожд., средняя 
[Cb cap|Ac cast]
+26.4 +18.9 63 +42  1020.3  -0.9  755  273           
00 27.07.11 тихо ()   10 км  {гроза}  4/0 средняя 
[Ac cast]
+23.1 +19.2 79 +40  1020.4  -0.1  755  276           
03 27.07.11 290 (З) >10 км    10/0 верхняя 
[Ci fib]
+24.5 +17.1 63 +37  1021.3  0.9  756  276           
06 27.07.11 240 (ЮЗ) >10 км  в посл. час ливневой дождь  9/9 600 м 
[Sc diur, vesp]
+26.2 +20.1 69 +45  1020.6  -0.5  755  273  +21.6         
09 27.07.11 310 (СЗ) >10 км    8/0 средняя, верхняя 
[Ac lent|Ci fib]
+28.4 +17 50 +41  1020.3  -0.2  755  272           
12 27.07.11 220 (ЮЗ) >10 км    8/0 средняя, верхняя 
[Ac lent|Ci fib]
+30.8 +17.1 44 +43  1019.1  -1.1  754  269           
15 27.07.11 050 (СВ) >10 км    6/0 средняя, верхняя 
[Ac lent|Ci fib]
+30.5 +15.7 41 +40  1018  -1.1  753  270           
18 27.07.11 130 (ЮВ) 10 км    1/1 1000 м 
[Sc diur, vesp]
+26.4 +17.5 58 +40  1017.7  -0.5  753  273    +32  0.0     
21 27.07.11 120 (ЮВ) 10 км    ясно 
+24.1 +17.5 67 +37  1016.7  -1.1  752  275           
00 28.07.11 110 (В) 10 км    ясно 
+22.9 +17.4 71 +36  1016.4  -0.4  752  276           
03 28.07.11 100 (В) >10 км    6/3 1000 м верхняя 
[Cu hum|Ci fib]
+24.5 +18.7 70 +40  1015.4  -0.8  751  273           
06 28.07.11 160 (Ю) >10 км    3/0 верхняя 
[Ci fib]
+28.5 +19.6 59 +46  1014.6  -0.6  751  269  +21.7         
09 28.07.11 220 (ЮЗ) >10 км    1/0 верхняя 
[Ci fib]
+31.4 +18.7 47 +47  1013.2  -0.4  750  267           
12 28.07.11 150 (ЮВ) >10 км    6/0 средняя 
[Ac cast]
+32 +19.8 49 +50  1011.4  -1.7  749  265           
15 28.07.11 040 (СВ) >10 км  гроза, ливневой дождь  8/6 600 м кучево-дожд., средняя 
[Cb cap|Ac cast]
+25 +16.8 60 +37  1011.2  -0.5  748  273           
18 28.07.11 060 (СВ) 10 км  {гроза, ливн. осадки}  10/6 600 м средняя 
[Sc|Ac cast]
+22.7 +16.7 69 +35  1010.7  -0.6  748  275    +32.8       
21 28.07.11 120 (ЮВ) 10 км    8/0 средняя 
[Ac cast]
+21.2 +16.4 74 +32  1010  -0.7  747  276           
00 29.07.11 110 (В) 10 км    ясно 
+19.9 +16.8 82 +33  1008.8  -1.3  746  277           
03 29.07.11 160 (Ю) >10 км    4/0 средняя 
[Ac lent]
+21.8 +17.3 76 +35  1008.2  -0.5  746  274           
06 29.07.11 250 (З) >10 км    1/0 средняя 
[Ac trans]
+26.9 +19 62 +44  1006.8  -1.2  745  269  +19         
09 29.07.11 210 (ЮЗ) >10 км    1/0 средняя 
[Ac trans]
+30.6 +16.3 42 +42  1006  -0.6  745  266           
12 29.07.11 240 (ЮЗ) >10 км    3/3 1000 м средняя 
[Cu hum|Ac trans]
+31.7 +15.1 37 +41  1004.3  -1.6  743  265           
15 29.07.11 300 (СЗ) >10 км    8/3 1000 м средняя, верхняя 
[Cu med, cong|Ac cast|Ci fib]
+29.5 +15 41 +38  1003  -1.4  742  267           
18 29.07.11 330 (СЗ) 10 км    ясно 
+26.2 +16.5 55 +38  1002.9  -0.2  742  269    +32.3       
21 29.07.11 350 (С) 10 км    ясно 
+23.9 +18 70 +39  1002.8  -0.2  742  271           
00 30.07.11 300 (СЗ) 10 км    4/0 средняя 
[Ac cast]
+21.6 +18.6 83 +38  1002.4  -0.5  742  273           
03 30.07.11 350 (С) >10 км    10/10 600 м 
[Sc]
+19.5 +17 85 +34  1002.4  -0.2  741  275  +19.5        сухая 
06 30.07.11 350 (С) >10 км    1/0 средняя 
[Ac lent]
+22.2 +16.6 71 +34  1002.6  0.4  742  273  +19.5         
09 30.07.11 330 (СЗ) >10 км    8/3 1000 м средняя, верхняя 
[Cu hum|Ac lent|Ci fib]
+26.6 +16.4 54 +38  1002.1  -0.3  742  269           
12 30.07.11 290 (З) >10 км  {гроза, ливн. осадки}  6/1 1000 м средняя, верхняя 
[Sc diur, vesp|Ac cuf|Ci fib]
+24.3 +19.8 76 +43  1002.5  0.3  742  270           
15 30.07.11 290 (З) >10 км    4/0 средняя, верхняя 
[Ac lent|Ci fib]
+25.7 +18 62 +40  1001.6  -0.8  741  269           
18 30.07.11 310 (СЗ) 10 км    3/3 600 м кучево-дожд. 
[Cb cap]
+23.6 +17.9 70 +38  1001.7  -0.1  741  271    +27     
21 30.07.11 020 (С) 10 км  в посл. час гроза{ливн. осадки}  8/0 верхняя 
[Ci fib]
+21.1 +17.2 78 +34  1001.8  741  273           
00 31.07.11 320 (СЗ) 10 км  {гроза, ливн. осадки}  10/10 600 м 
[Sc]
+19.4 +17.1 87 +33  1002.1  0.2  741  275           
03 31.07.11 030 (СВ) >10 км    10/10 600 м 
[Sc]
+18.1 +15.9 87 +30  1002.8  0.7  742  277           
06 31.07.11 030 (СВ) >10 км    10/10 600 м 
[Sc]
+18.3 +13.8 75 +26  1005.2  2.4  744  278  +17.5    0.0     
09 31.07.11 040 (СВ) >10 км    4/4 600 м 
[Sc diur, vesp]
+21.9 +13.8 60 +29  1004.9  -0.2  743  275           
12 31.07.11 070 (В) >10 км    5/5 600 м верхняя 
[Cu hum|Ci fib]
+23.9 +11.5 46 +27  1003.8  -1  743  273           
15 31.07.11 090 (В) >10 км    4/1 600 м средняя 
[Cu hum|Ac und]
+22.7 +11.3 49 +26  1003.3  -0.5  742  274           
18 31.07.11 080 (В) 10 км    1/0 средняя 
[Ac cast]
+19.8 +11.7 60 +25  1003.5  742  277    +24.1       
21 31.07.11 070 (В) 10 км    ясно 
+17.2 +12.9 76 +24  1002.4  -1.2  741  278           
00 01.08.11 070 (В) 10 км    8/8 600 м 
[Cu med, cong]
+16.2 +13.4 83 +24  1002.2  -0.3  741  279           
03 01.08.11 040 (СВ) >10 км    8/0 средняя 
[Ac cast]
+17 +13.5 80 +24  1001.9  -0.2  741  278           
06 01.08.11 050 (СВ) >10 км    8/3 1000 м средняя 
[Cu med, cong|Ac cast]
+19.2 +14 72 +27  1001.7  -0.1  741  276  +16         
Время (UTC), дата Ветер
(°,м/с) 
Видим.   Явления Облачность Т
(°С)
Тd
(°С)
f(%) Тe
(°С)
Pmin
(гПа)
dP
(гПа)
Po
(мм)
O2
(г/м3)
Тmin Tmax R s Состояние
почвы